GFSGL_925_spd_000.txt.gz
Wind_Speed
40 38 36 39 40 38 38 35 32 28 24 21 19 17 16 14 13 14 14 15 18 22 24 24 26 23 22 23 23 24 26 26 18 50 47 50 43 40 38 38 41 43 45
40 39 39 39 41 40 38 34 30 27 23 20 18 16 15 14 14 14 14 16 19 21 21 20 23 21 23 24 25 26 28 28 28 27 47 46 47 40 40 43 42 41 45
38 39 38 39 40 40 38 34 30 27 24 21 19 17 15 14 14 14 16 18 20 21 21 20 21 22 25 24 26 27 28 28 29 31 37 38 45 41 42 41 45 45 44
39 36 34 35 35 36 35 32 30 27 24 20 18 16 15 15 13 13 13 16 18 18 19 21 22 24 27 27 29 30 31 31 32 33 34 35 36 35 36 35 39 35 40
34 34 32 31 35 35 34 33 30 26 22 19 17 16 14 13 13 13 12 15 18 18 20 21 24 26 27 32 32 31 30 31 31 31 31 31 30 31 30 32 34 35 44
35 32 32 34 36 36 37 35 32 26 22 20 18 15 13 11 11 12 14 15 16 19 21 22 24 28 30 30 33 36 38 37 35 32 33 27 33 36 36 34 33 26 16
35 35 37 39 40 40 38 35 30 26 21 18 15 13 11 12 12 12 12 14 17 20 22 25 26 27 30 34 36 40 41 42 44 44 41 38 39 39 38 37 33 32 31
31 33 36 39 38 39 38 34 29 24 21 17 14 11 10 12 10 11 12 15 19 21 23 25 28 31 30 34 37 39 38 36 37 41 46 47 44 43 41 43 42 41 42
32 35 38 41 38 37 34 34 30 25 21 18 13 12 13 12 10 9 10 16 21 22 22 24 25 29 33 35 38 39 40 38 39 44 48 51 52 51 50 44 39 30 18
36 38 38 40 42 41 41 36 30 25 21 15 13 12 12 9 5 6 10 16 18 22 22 21 26 28 32 38 41 37 38 36 36 42 45 47 45 46 49 45 38 26 16
32 33 37 40 42 41 38 34 30 25 18 16 13 10 8 5 3 7 9 13 18 19 19 23 26 29 37 38 36 33 35 40 38 34 40 31 34 39 41 42 44 42 35
34 34 34 37 36 39 37 32 27 23 19 13 11 8 7 6 5 5 8 12 16 21 21 24 30 35 35 34 32 33 37 35 31 29 30 28 28 32 36 40 43 47 48
33 32 34 36 38 39 36 33 27 22 18 14 11 11 10 6 3 4 9 11 16 21 22 27 31 32 31 30 31 32 34 30 28 27 26 28 30 33 35 35 43 44 45
29 29 31 33 33 35 31 30 26 25 18 14 12 11 9 5 3 5 8 13 16 18 22 28 26 25 24 27 29 30 29 31 29 28 28 31 34 33 31 32 35 30 30
28 29 29 26 28 28 26 28 25 22 22 19 17 14 10 6 3 6 8 13 15 17 21 24 24 24 25 27 28 29 30 32 29 30 30 30 31 30 30 30 30 32 21
30 29 30 28 28 28 27 21 14 19 16 13 11 11 8 4 2 3 7 11 12 14 20 19 18 20 22 25 27 30 31 33 32 34 32 31 30 28 29 31 28 26 15
33 32 31 29 26 23 22 26 21 17 15 15 13 11 7 3 1 3 6 9 10 13 18 18 17 20 24 25 27 29 31 35 35 35 35 34 28 31 29 26 25 23 17
33 37 34 32 30 27 23 24 22 24 20 18 13 12 7 3 2 4 6 8 17 20 21 20 21 24 25 26 29 30 33 37 34 39 36 30 32 29 26 23 22 18 15
34 34 38 32 28 28 27 23 22 20 18 19 17 13 8 6 6 5 6 11 13 18 20 23 22 24 25 26 30 32 33 35 37 40 36 35 33 29 26 25 24 26 25
34 34 32 35 33 28 26 23 20 19 18 17 17 15 10 8 7 7 8 11 15 18 21 23 26 29 28 28 30 34 35 36 37 38 41 37 34 31 27 27 24 20 19
29 29 31 28 27 28 27 23 20 20 18 17 19 13 8 7 7 6 6 9 14 17 19 21 25 29 30 30 31 34 34 37 38 40 44 41 37 32 30 28 27 26 25
29 30 26 26 25 24 24 23 21 20 20 19 18 13 8 8 7 3 6 10 14 16 18 20 24 27 31 31 33 34 35 40 38 43 48 44 38 35 34 31 28 24 24
31 29 27 25 24 25 22 22 21 20 21 20 18 13 10 8 6 3 6 10 13 16 18 20 24 29 33 37 39 35 36 41 40 47 49 46 42 39 36 32 29 23 19
32 30 28 25 25 22 22 21 20 22 21 18 16 13 9 8 4 4 6 10 13 16 18 21 24 28 33 35 38 42 44 47 35 48 48 44 43 44 38 35 30 30 25
30 29 27 25 24 21 20 21 21 21 19 17 14 11 8 6 5 5 8 11 14 18 20 21 23 27 32 33 36 42 46 47 38 49 46 45 45 45 41 36 36 31 27
28 27 25 24 22 21 21 19 20 19 17 14 11 8 6 5 5 6 9 13 17 19 21 23 22 25 29 33 36 40 45 42 42 49 44 45 45 46 43 42 41 34 32

GFSGL_925_spd_003.txt.gz
Wind_Speed
43 44 42 45 46 46 46 46 43 38 37 35 31 26 21 17 13 12 12 13 14 15 16 16 15 14 17 18 16 15 17 19 19 56 32 35 36 38 36 35 39 42 43
41 41 41 40 41 42 42 42 41 39 37 35 32 27 23 18 15 13 13 13 14 14 13 13 13 12 16 18 16 17 18 19 26 34 44 42 38 37 38 40 40 40 41
39 41 38 40 41 41 41 41 40 38 36 33 29 26 22 17 15 13 13 12 13 13 13 13 14 14 18 17 16 17 19 22 24 31 46 40 43 39 38 39 41 43 41
40 39 38 39 42 41 41 40 40 38 38 34 30 25 21 18 15 14 13 12 11 11 12 13 14 15 20 20 19 22 25 25 27 32 38 43 37 40 37 36 41 37 40
36 36 38 37 39 40 40 39 40 39 38 35 30 25 22 19 17 15 14 13 12 11 11 11 14 18 18 21 24 23 25 26 27 29 32 33 35 33 31 31 35 42 40
35 35 35 37 39 41 41 42 42 40 38 34 31 27 24 21 17 15 13 12 11 10 9 11 14 18 22 23 24 27 30 33 32 31 33 29 38 36 38 37 36 33 20
33 33 36 37 38 40 43 44 44 44 40 35 30 26 23 19 16 15 16 12 11 11 9 12 14 16 20 24 26 29 32 35 38 41 43 41 42 39 39 41 38 38 39
31 32 35 38 36 38 42 41 40 42 42 38 34 29 25 21 17 15 14 14 12 11 11 12 15 20 21 23 28 30 33 36 38 40 43 49 45 46 44 46 46 47 50
29 33 37 39 36 38 37 37 37 37 37 36 34 30 27 22 20 17 16 15 13 12 11 13 17 20 22 23 28 32 34 37 33 36 43 47 48 51 51 46 37 30 20
32 33 34 36 38 40 39 37 38 37 35 34 31 29 25 22 19 18 17 16 13 12 12 13 15 20 22 24 28 31 29 35 38 35 35 31 39 45 47 48 48 32 25
26 31 34 35 36 34 35 35 38 37 34 32 31 28 26 21 19 16 16 15 12 11 13 13 15 18 21 26 28 27 29 38 35 35 35 32 33 35 34 35 39 41 36
28 31 31 31 30 33 35 31 34 35 31 28 28 25 22 21 18 18 15 13 10 7 8 12 18 18 24 24 24 23 29 31 32 31 32 31 32 33 33 34 38 43 43
27 26 28 31 32 36 36 33 30 29 27 24 23 20 19 20 19 15 14 11 7 6 7 11 15 18 18 19 19 23 25 25 26 27 30 31 33 38 40 39 39 40 45
24 21 26 30 29 31 29 31 30 29 24 23 20 19 19 19 20 18 14 11 7 6 7 11 11 12 12 14 17 19 21 23 26 29 30 34 36 36 35 34 36 34 33
25 28 29 24 28 30 31 34 31 29 30 29 25 27 25 20 24 17 12 9 8 3 6 6 11 14 14 17 19 20 22 24 26 28 30 33 34 36 34 34 32 32 29
23 23 23 27 34 34 31 26 24 26 21 20 23 28 22 19 16 14 11 8 5 2 1 7 11 12 13 17 19 22 24 25 27 30 33 32 34 34 33 33 34 29 24
25 26 25 25 27 26 27 30 24 28 25 25 24 26 22 20 15 14 10 9 6 3 6 8 10 13 16 17 18 21 25 28 32 30 34 35 35 36 35 31 30 27 24
28 28 31 30 29 29 31 27 29 29 25 25 24 25 23 20 18 14 12 11 8 5 6 8 11 13 17 18 20 22 26 29 31 32 35 36 36 37 33 30 28 25 23
29 27 26 25 27 30 28 27 25 24 26 26 26 24 22 21 19 14 9 10 7 3 7 6 10 13 17 20 23 24 26 28 33 33 34 36 39 38 34 33 31 32 31
26 25 27 27 26 26 26 23 20 21 24 26 23 24 26 25 22 17 12 9 5 3 5 7 10 13 17 21 24 26 27 29 31 32 35 34 41 39 35 34 32 29 26
23 25 25 26 27 26 25 26 25 24 21 21 18 27 26 26 23 17 13 9 5 5 3 6 10 13 18 22 25 28 30 30 30 32 35 38 42 40 39 36 35 32 30
24 27 27 26 28 28 26 26 26 25 24 23 24 22 20 22 19 15 11 7 3 1 2 7 11 15 19 23 26 29 30 32 32 33 34 42 41 42 40 38 35 33 30
26 27 25 25 27 29 28 27 28 26 24 25 23 23 21 19 17 13 9 5 3 2 2 6 9 13 18 22 26 29 33 35 35 38 34 41 41 42 43 39 37 33 30
23 24 25 24 26 26 26 26 25 25 27 27 26 23 19 16 14 10 6 4 3 2 4 7 9 12 18 22 24 28 32 36 39 32 38 38 39 43 42 41 38 40 35
21 22 22 24 25 25 26 24 24 25 27 29 25 20 16 13 11 7 5 3 4 5 6 8 9 11 16 20 23 26 30 33 37 31 40 36 40 42 42 40 41 40 37
22 22 22 22 23 23 23 23 23 25 25 25 22 17 14 11 9 6 4 4 5 7 9 11 11 11 14 18 22 26 30 33 35 39 39 34 38 41 42 41 44 40 38

GFSGL_925_spd_006.txt.gz
Wind_Speed
44 46 44 46 47 46 45 43 45 43 41 41 43 40 36 32 29 26 22 19 16 13 12 11 11 12 13 13 13 12 13 12 12 24 16 26 30 33 33 34 34 35 36
47 44 47 44 46 47 47 46 45 43 41 42 44 42 40 36 32 28 25 23 18 16 14 13 12 12 13 12 13 14 13 13 14 27 29 27 30 32 35 37 37 36 37
38 43 40 42 42 45 45 47 45 43 42 43 46 45 42 38 34 29 26 23 19 17 16 15 14 13 15 13 11 11 12 14 17 23 40 31 34 34 38 37 38 39 37
41 42 41 42 47 46 45 45 46 45 45 46 47 45 43 39 36 31 27 24 19 17 16 15 14 14 14 13 12 13 13 16 20 24 32 38 33 34 33 36 39 36 37
40 38 41 44 40 38 41 44 44 44 45 49 48 46 44 41 38 33 30 25 22 19 17 15 14 13 13 12 11 14 16 19 19 23 28 33 34 31 29 37 41 44 41
36 39 36 35 39 43 41 42 43 44 44 47 49 49 45 41 36 33 31 27 23 20 18 15 14 13 14 13 14 16 18 21 22 23 25 29 39 37 35 36 40 37 22
37 32 35 36 38 40 39 41 43 45 46 45 46 47 45 41 33 28 27 26 23 19 16 13 11 10 11 10 13 15 19 22 26 30 33 33 42 39 43 44 40 41 44
26 27 31 35 34 34 36 39 40 43 47 45 44 46 44 42 32 31 27 25 21 19 17 14 11 10 10 11 14 19 23 27 27 29 32 36 40 39 39 43 46 46 47
24 29 34 37 34 35 35 36 37 37 37 40 43 42 40 39 30 30 29 25 21 19 15 11 10 11 13 12 16 21 26 28 25 28 35 39 39 41 46 47 41 36 24
19 20 23 26 29 31 31 32 33 34 32 32 35 38 40 41 31 29 27 27 24 21 14 11 11 14 12 14 17 23 21 24 26 31 28 33 37 38 33 31 33 31 30
11 16 22 28 29 28 29 29 28 28 28 28 30 34 38 36 31 28 27 27 27 21 17 16 14 12 13 15 18 20 22 27 27 29 36 31 29 30 30 29 30 33 36
11 15 20 25 26 29 31 28 29 28 26 25 26 26 29 33 33 26 26 23 20 19 18 14 12 10 10 16 19 18 18 21 27 29 25 27 27 29 29 31 35 38 40
12 15 18 19 22 27 28 25 24 27 26 25 26 25 25 30 32 26 29 26 22 21 18 14 11 8 9 13 13 15 16 18 21 21 23 27 29 33 36 37 35 38 42
20 18 20 23 26 27 26 25 24 25 25 26 25 23 25 26 30 29 29 25 20 16 14 12 9 8 7 7 10 12 14 16 18 23 26 30 33 32 34 34 37 38 38
24 21 20 21 29 24 26 32 35 39 40 37 33 32 31 26 33 34 35 29 23 18 14 10 7 4 5 6 9 13 16 17 19 22 25 30 32 32 35 35 35 38 34
20 18 19 23 22 21 22 19 27 24 29 29 29 32 26 21 28 30 26 22 19 17 13 10 7 4 5 9 11 15 18 19 21 23 26 28 31 32 34 36 34 35 32
25 21 20 19 19 21 22 23 15 23 26 29 25 24 25 28 36 30 26 23 19 14 11 10 7 5 7 10 10 13 18 21 23 24 25 29 31 31 33 33 35 34 32
29 27 25 24 26 24 23 21 23 24 20 24 27 29 31 34 30 28 27 24 21 13 15 11 7 5 8 12 12 14 20 23 24 25 28 31 29 30 33 33 34 33 32
28 25 23 21 22 22 23 24 24 25 25 28 31 32 37 33 32 28 23 27 22 16 14 9 6 5 10 13 12 16 20 24 27 29 29 29 29 31 32 35 36 38 38
29 25 22 22 22 23 24 24 23 26 27 28 28 31 37 38 28 29 23 23 19 17 13 9 5 5 11 13 13 16 21 25 28 28 30 30 30 30 34 37 37 36 34
22 20 23 20 21 23 24 25 25 26 27 27 28 29 32 30 30 31 28 23 20 15 11 7 3 6 11 11 13 17 21 26 29 29 29 29 32 32 35 38 39 39 37
16 18 19 18 20 21 22 24 25 27 26 27 28 32 30 34 33 29 25 22 17 13 9 7 6 10 13 13 13 17 22 27 31 31 31 31 30 35 35 39 39 38 37
14 17 16 16 18 20 22 23 25 25 25 28 31 29 28 29 30 29 24 19 15 11 8 7 10 13 14 13 13 17 22 27 31 33 35 35 30 35 37 38 39 37 35
14 14 15 15 16 19 19 20 21 25 27 27 24 25 27 30 30 25 21 17 12 9 8 9 11 15 15 14 14 16 21 25 31 31 34 31 32 36 37 37 38 39 39
15 15 16 16 17 18 20 20 22 25 24 24 24 25 30 29 25 21 16 13 10 8 7 9 12 13 15 15 15 17 20 22 27 29 31 33 31 33 35 36 37 39 38
18 17 16 17 18 18 20 21 21 22 23 23 25 29 29 25 21 17 14 11 8 7 7 9 10 14 15 14 14 17 20 23 26 30 30 34 29 32 34 36 37 37 37

GFSGL_925_spd_009.txt.gz
Wind_Speed
40 43 42 46 48 48 48 46 45 44 43 42 43 47 47 44 40 38 36 33 30 26 23 21 20 17 16 14 13 12 13 13 8 9 12 14 25 28 33 31 31 32 34
42 41 47 43 43 43 48 50 48 46 44 44 44 45 49 48 46 43 40 36 33 31 27 25 24 21 18 16 14 13 13 13 11 11 11 10 20 25 28 30 29 29 29
37 40 37 39 42 47 48 47 48 47 46 45 44 48 50 52 50 47 44 41 38 33 31 28 25 21 19 17 15 13 12 12 14 16 15 14 20 22 28 26 25 26 26
36 39 40 42 51 49 44 45 48 49 48 47 49 50 51 53 52 49 45 42 37 33 29 27 24 22 18 16 15 12 11 14 14 19 20 21 18 21 21 27 30 27 30
36 35 41 43 41 40 42 46 47 46 48 50 48 47 48 51 54 52 49 43 38 33 29 26 25 22 19 16 15 14 12 13 15 17 19 21 17 20 22 29 32 36 34
31 38 39 32 34 42 40 42 43 43 45 45 46 48 49 49 50 51 49 44 39 34 31 26 22 21 17 14 13 12 13 14 16 18 17 20 22 23 24 27 32 31 14
33 34 35 37 37 39 37 36 36 39 39 42 44 46 46 47 43 41 44 45 41 37 32 29 24 21 18 17 16 15 16 16 17 20 22 23 27 25 27 30 30 32 32
31 29 29 31 34 35 34 36 35 38 41 40 41 44 42 42 39 40 36 42 40 37 34 29 25 20 17 16 13 16 15 16 19 19 22 28 28 26 28 30 32 38 39
26 26 26 23 25 26 28 30 30 32 32 35 37 39 38 35 36 37 36 36 32 32 30 26 24 20 17 17 15 14 13 20 19 18 21 26 31 29 30 34 30 26 26
32 26 27 25 24 24 25 25 24 28 29 30 30 36 41 42 42 42 37 35 31 29 28 26 23 21 18 17 14 12 18 21 16 22 26 25 29 37 31 27 28 24 26
39 30 19 18 22 23 22 23 26 27 24 25 27 27 34 40 43 42 39 37 37 34 31 26 24 21 17 14 12 13 18 15 19 21 26 30 31 31 30 28 27 27 30
37 33 20 12 14 15 19 19 21 22 23 22 22 21 25 30 37 41 41 32 32 34 30 28 24 21 17 13 11 11 14 14 20 24 26 25 25 24 26 27 30 34 37
30 30 28 19 13 16 20 18 17 19 18 17 20 20 19 25 31 35 38 30 28 28 28 25 23 20 14 13 12 8 11 16 16 17 20 22 21 23 27 31 33 36 39
33 29 27 24 18 19 22 24 23 22 20 18 19 19 20 23 28 29 31 31 25 22 22 22 20 19 16 12 11 9 10 10 12 15 18 21 22 24 25 27 31 33 35
34 31 25 24 19 19 22 24 27 30 33 29 28 27 28 28 38 41 35 31 29 29 31 27 20 17 15 14 12 10 8 8 12 13 16 20 20 23 25 26 28 33 30
32 28 27 22 19 20 20 18 25 24 24 27 26 32 31 28 39 46 43 38 33 35 34 26 21 20 17 14 12 9 6 8 11 13 16 17 18 22 27 30 28 28 31
32 30 27 24 20 19 19 19 11 22 22 26 27 27 26 27 35 41 42 41 38 32 24 26 21 21 16 14 12 8 6 10 13 14 17 18 19 22 25 28 30 30 32
33 34 30 29 22 20 21 18 17 16 14 19 27 25 26 27 36 40 38 35 32 21 25 26 26 23 19 15 11 7 9 12 14 17 17 19 24 24 24 27 29 30 33
34 33 30 29 24 24 19 18 19 18 18 18 20 25 27 28 37 41 42 32 29 26 27 28 25 23 18 13 9 9 10 12 15 20 19 20 24 25 25 26 31 33 37
33 35 35 30 18 18 17 18 19 20 20 20 22 25 29 33 36 37 29 33 30 30 30 27 22 19 15 11 10 10 10 11 15 19 19 21 25 24 26 28 28 33 35
30 29 29 24 17 19 18 18 19 19 19 21 23 28 37 35 28 29 32 32 34 33 31 26 21 16 13 11 9 9 10 13 17 19 21 24 25 26 28 27 30 35 35
29 27 20 16 15 16 16 17 18 18 18 20 21 28 35 25 27 27 30 34 31 29 25 21 18 15 12 10 8 9 11 14 17 20 23 25 27 29 29 26 32 35 36
11 4 8 10 13 14 15 16 16 18 19 21 26 22 25 24 23 27 30 31 27 24 20 17 15 13 10 9 9 10 12 14 18 21 24 26 30 31 26 28 32 35 34
4 7 8 9 10 11 12 14 15 18 20 22 19 21 22 26 27 28 29 26 22 19 16 13 11 10 10 10 11 11 13 15 18 21 22 25 31 27 28 27 31 35 36
11 12 11 11 12 13 15 15 17 19 17 20 21 23 26 28 29 27 25 22 18 15 13 10 9 8 8 9 11 11 12 14 17 19 20 27 27 31 27 28 31 34 36
15 15 15 15 15 15 16 16 17 18 19 20 23 25 27 28 26 24 21 18 15 13 10 8 7 7 9 10 10 10 11 13 17 18 22 26 26 29 25 29 32 31 33

GFSGL_925_spd_015.txt.gz
Wind_Speed
35 36 27 23 26 28 31 34 36 36 36 38 40 43 47 50 52 52 49 50 50 47 45 41 39 35 33 30 28 26 23 20 7 7 13 14 10 8 7 8 9 9 11
36 36 34 34 25 25 30 33 35 37 38 39 41 42 46 48 51 54 50 49 51 50 49 45 43 38 36 34 32 30 29 25 16 10 12 11 10 8 7 7 9 11 13
36 36 38 37 34 29 28 31 33 35 39 40 41 43 44 47 48 51 52 51 51 49 50 50 47 45 41 40 37 36 32 30 26 16 11 12 10 8 8 8 10 12 13
30 27 26 33 37 37 33 31 32 32 34 38 42 45 47 45 47 47 48 47 51 51 51 52 51 52 49 46 42 39 36 31 24 17 12 10 12 10 8 7 7 8 12
26 24 27 27 31 36 36 31 28 30 34 35 37 41 44 45 48 47 47 46 46 43 46 49 51 53 52 48 46 43 39 32 23 19 14 10 11 11 11 7 10 10 14
24 24 26 28 30 30 35 36 32 31 31 36 37 38 40 42 41 46 48 43 40 41 42 45 45 51 51 48 46 43 42 42 32 23 20 18 18 16 13 13 11 7 5
24 26 26 28 32 33 34 35 34 30 31 33 35 37 38 40 38 42 45 44 43 43 41 40 39 45 48 43 35 35 36 38 37 38 28 22 18 20 15 13 11 9 9
25 25 27 31 34 32 35 35 34 29 25 29 30 34 32 36 34 38 41 42 43 43 44 46 45 43 49 46 40 35 36 36 33 33 29 21 19 17 15 10 9 10 13
23 25 28 29 31 28 30 32 36 33 31 27 26 28 31 35 33 35 40 42 37 39 42 42 44 44 50 41 41 34 29 32 28 26 22 18 16 14 11 14 12 5 2
24 27 30 31 29 31 31 31 32 32 33 30 27 28 31 32 30 30 41 37 33 33 36 37 42 43 42 43 42 38 32 31 32 29 23 19 19 19 18 13 10 7 5
28 31 31 30 30 32 33 33 32 31 30 28 30 28 27 30 32 31 39 40 34 31 29 31 36 39 42 44 37 38 34 30 30 29 23 25 24 19 16 13 11 10 8
31 31 30 31 33 32 31 34 31 29 28 27 26 26 23 27 30 33 36 44 34 32 31 29 30 40 38 43 39 33 28 27 32 28 26 22 18 16 14 12 9 7 8
28 34 35 35 33 30 28 33 30 27 24 24 21 20 23 24 31 30 32 38 39 33 29 29 30 38 39 40 36 29 30 29 32 28 25 18 15 14 12 10 7 6 6
31 35 35 34 36 34 31 29 28 27 24 23 21 21 22 22 24 26 29 31 37 32 26 26 28 36 35 34 38 32 35 35 33 28 22 16 13 13 11 9 5 3 5
32 36 35 33 33 33 30 29 29 31 29 28 27 25 22 20 26 25 28 30 32 31 30 28 28 31 29 27 27 29 35 35 30 25 19 16 13 11 9 7 4 2 3
35 34 31 30 30 30 30 33 33 35 37 39 38 35 27 33 25 25 31 32 30 37 33 30 28 33 30 32 29 27 31 32 27 24 21 21 17 13 9 6 2 4 5
34 34 32 30 29 27 27 26 22 31 30 33 34 35 36 31 25 25 30 32 34 41 28 30 31 30 29 30 28 27 22 26 27 24 23 19 16 12 10 5 3 5 7
34 34 33 31 30 28 27 27 26 23 18 21 25 29 31 32 27 23 27 29 30 41 29 28 29 30 28 29 29 28 25 26 25 22 20 20 17 13 9 6 4 5 8
33 31 32 31 31 31 30 29 29 27 25 26 21 21 24 26 27 24 27 29 24 31 25 23 28 31 29 29 28 27 31 28 26 24 22 20 17 12 8 5 4 7 9
31 32 33 30 29 28 28 26 24 24 23 24 17 17 17 19 21 23 25 25 20 24 25 25 25 26 27 28 29 30 29 30 27 23 20 17 14 10 7 4 5 6 9
29 29 30 30 28 28 27 25 24 22 21 15 16 18 20 19 18 19 19 20 18 25 26 27 28 27 28 32 33 32 30 28 25 20 17 14 11 9 7 5 6 9 12
27 26 26 25 26 25 24 25 23 21 15 14 14 17 19 16 13 15 14 20 24 27 33 33 29 28 31 34 33 31 29 26 23 20 16 13 9 8 5 5 8 11 13
23 23 23 22 20 18 15 12 10 9 10 11 11 6 3 16 22 22 23 27 28 30 29 26 25 26 28 27 27 26 25 23 20 17 14 11 8 7 5 8 11 14 14
21 20 19 18 16 14 13 12 11 10 11 12 13 14 16 16 23 22 24 25 27 27 26 27 29 28 26 24 21 19 17 16 14 13 11 9 8 7 8 11 13 16 17
20 20 19 18 17 16 15 15 16 16 16 15 16 17 18 21 24 26 28 31 33 34 31 28 25 22 20 18 16 15 14 13 12 10 9 9 8 8 11 14 17 18 18
20 20 20 20 20 19 17 16 16 16 16 17 17 18 20 22 24 28 31 32 32 30 27 23 20 18 15 14 12 11 12 12 11 9 8 9 10 11 14 17 19 21 21